| time (UTC) | temp F | wind direction | speed knots | gust knots | rain 1hr in | rain 24hr in | rain mn in | humidity % | barometer mb |
| 20260504021057 | 75 | 170 | 0.9 | 7.0 | 0.00 | 0.00 | 0.00 | 63 | 1018.6 |
| 20260504020550 | 75 | 225 | 0.9 | 7.0 | 0.00 | 0.00 | 0.00 | 63 | 1018.8 |
| 20260504020310 | 75 | 103 | 0.9 | 5.2 | 0.00 | 0.00 | 0.00 | 62 | 1018.6 |
| 20260504020052 | 75 | 110 | 0.9 | 7.0 | 0.00 | 0.00 | 0.00 | 62 | 1018.9 |
| 20260504015547 | 75 | 148 | 0.9 | 7.8 | 0.00 | 0.00 | 0.00 | 62 | 1018.6 |
| 20260504015250 | 76 | 220 | 1.7 | 8.7 | 0.00 | 0.00 | 0.00 | 61 | 1018.6 |
| 20260504014542 | 75 | 337 | 0.9 | 8.7 | 0.00 | 0.00 | 0.00 | 60 | 1018.7 |
| 20260504014530 | 76 | 309 | 0.9 | 8.7 | 0.00 | 0.00 | 0.00 | 61 | 1018.5 |
| 20260504014031 | 76 | 317 | 1.7 | 7.0 | 0.00 | 0.00 | 0.00 | 60 | 1018.4 |
| 20260504013801 | 76 | 302 | 1.7 | 7.0 | 0.00 | 0.00 | 0.00 | 60 | 1018.4 |
| 20260504013051 | 76 | 0 | 0.0 | 2.6 | 0.00 | 0.00 | 0.00 | 59 | 1018.5 |
| 20260504013030 | 76 | 257 | 0.9 | 3.5 | 0.00 | 0.00 | 0.00 | 59 | 1018.2 |
| 20260504012749 | 76 | 168 | 0.0 | 3.5 | 0.00 | 0.00 | 0.00 | 58 | 1018.2 |
| 20260504012029 | 76 | 65 | 0.0 | 5.2 | 0.00 | 0.00 | 0.00 | 58 | 1018.0 |
| 20260504011550 | 76 | 0 | 0.9 | 5.2 | 0.00 | 0.00 | 0.00 | 57 | 1018.3 |
| 20260504011529 | 77 | 262 | 0.9 | 5.2 | 0.00 | 0.00 | 0.00 | 57 | 1018.0 |
| 20260504011029 | 77 | 301 | 0.9 | 4.3 | 0.00 | 0.00 | 0.00 | 57 | 1018.1 |
| 20260504010529 | 77 | 180 | 0.0 | 8.7 | 0.00 | 0.00 | 0.00 | 56 | 1018.1 |
| 20260504010055 | 77 | 0 | 0.9 | 7.8 | 0.00 | 0.00 | 0.00 | 55 | 1018.3 |
| 20260504010028 | 77 | 175 | 0.9 | 8.7 | 0.00 | 0.00 | 0.00 | 55 | 1018.1 |
| 20260504005529 | 78 | 198 | 0.9 | 6.1 | 0.00 | 0.00 | 0.00 | 55 | 1018.1 |
| 20260504005028 | 78 | 248 | 0.0 | 6.1 | 0.00 | 0.00 | 0.00 | 55 | 1018.1 |
| 20260504004547 | 78 | 0 | 0.0 | 4.3 | 0.00 | 0.00 | 0.00 | 54 | 1018.4 |
| 20260504004531 | 78 | 321 | 0.9 | 5.2 | 0.00 | 0.00 | 0.00 | 54 | 1018.1 |
| 20260504004030 | 78 | 1 | 0.0 | 7.0 | 0.00 | 0.00 | 0.00 | 54 | 1018.0 |
| 20260504003530 | 78 | 307 | 0.0 | 7.0 | 0.00 | 0.00 | 0.00 | 53 | 1017.9 |
| 20260504003046 | 78 | 0 | 0.9 | 5.2 | 0.00 | 0.00 | 0.00 | 52 | 1018.2 |
| 20260504003030 | 79 | 207 | 0.9 | 4.3 | 0.00 | 0.00 | 0.00 | 53 | 1018.0 |
| 20260504002529 | 79 | 207 | 0.0 | 7.0 | 0.00 | 0.00 | 0.00 | 53 | 1018.0 |
| 20260504002250 | 80 | 162 | 0.0 | 7.0 | 0.00 | 0.00 | 0.00 | 52 | 1017.9 |
| 20260504001602 | 80 | 157 | 0.0 | 5.2 | 0.00 | 0.00 | 0.00 | 51 | 1018.2 |
| 20260504001529 | 80 | 224 | 0.9 | 4.3 | 0.00 | 0.00 | 0.00 | 52 | 1018.0 |
| 20260504001029 | 80 | 41 | 0.9 | 7.0 | 0.00 | 0.00 | 0.00 | 51 | 1018.0 |
| 20260504000529 | 80 | 245 | 0.9 | 7.0 | 0.00 | 0.00 | 0.00 | 51 | 1018.0 |
| 20260504000049 | 80 | 251 | 1.7 | 7.0 | 0.00 | 0.00 | 0.00 | 50 | 1018.2 |
| 20260504000029 | 81 | 97 | 1.7 | 7.0 | 0.00 | 0.00 | 0.00 | 50 | 1018.0 |
| 20260503235528 | 81 | 205 | 1.7 | 7.0 | 0.00 | 0.00 | 0.00 | 50 | 1017.8 |
| 20260503235029 | 81 | 103 | 1.7 | 7.0 | 0.00 | 0.00 | 0.00 | 50 | 1017.8 |
| 20260503234549 | 81 | 0 | 0.0 | 6.1 | 0.00 | 0.00 | 0.00 | 49 | 1017.9 |
| 20260503234531 | 81 | 159 | 0.9 | 4.3 | 0.00 | 0.00 | 0.00 | 50 | 1017.7 |
| 20260503234516 | 81 | 233 | 0.0 | 7.8 | 0.00 | 0.00 | 0.00 | 50 | 1017.7 |
| 20260503233523 | 81 | 228 | 1.7 | 7.8 | 0.00 | 0.00 | 0.00 | 49 | 1017.7 |
| 20260503233044 | 81 | 287 | 2.6 | 7.8 | 0.00 | 0.00 | 0.00 | 48 | 1018.1 |
| 20260503233020 | 82 | 205 | 3.5 | 7.0 | 0.00 | 0.00 | 0.00 | 48 | 1017.9 |
| 20260503232748 | 82 | 51 | 0.9 | 3.5 | 0.00 | 0.00 | 0.00 | 49 | 1017.9 |
| 20260503232011 | 83 | 268 | 0.0 | 3.5 | 0.00 | 0.00 | 0.00 | 48 | 1017.9 |
| 20260503231547 | 82 | 40 | 0.0 | 5.2 | 0.00 | 0.00 | 0.00 | 47 | 1018.2 |
| 20260503231512 | 82 | 29 | 0.0 | 5.2 | 0.00 | 0.00 | 0.00 | 48 | 1017.9 |
| 20260503231011 | 82 | 332 | 1.7 | 5.2 | 0.00 | 0.00 | 0.00 | 48 | 1018.0 |
| 20260503230738 | 83 | 123 | 0.9 | 4.3 | 0.00 | 0.00 | 0.00 | 48 | 1018.1 |
| 20260503230048 | 83 | 0 | 0.0 | 4.3 | 0.00 | 0.00 | 0.00 | 47 | 1018.2 |
| 20260503230005 | 83 | 196 | 0.9 | 4.3 | 0.00 | 0.00 | 0.00 | 47 | 1018.0 |
| 20260503225503 | 83 | 334 | 0.9 | 5.2 | 0.00 | 0.00 | 0.00 | 47 | 1018.0 |
| 20260503225004 | 84 | 118 | 0.0 | 5.2 | 0.00 | 0.00 | 0.00 | 46 | 1018.0 |
| 20260503224549 | 84 | 188 | 0.0 | 6.1 | 0.00 | 0.00 | 0.00 | 45 | 1018.3 |
| 20260503224503 | 84 | 7 | 0.0 | 6.1 | 0.00 | 0.00 | 0.00 | 47 | 1018.0 |
| 20260503224002 | 84 | 255 | 0.9 | 6.1 | 0.00 | 0.00 | 0.00 | 46 | 1018.1 |
| 20260503223502 | 84 | 290 | 0.0 | 3.5 | 0.00 | 0.00 | 0.00 | 46 | 1018.2 |
| 20260503223059 | 83 | 131 | 0.0 | 3.5 | 0.00 | 0.00 | 0.00 | 46 | 1018.6 |
| 20260503223002 | 84 | 297 | 0.0 | 4.3 | 0.00 | 0.00 | 0.00 | 47 | 1018.4 |
| 20260503222501 | 83 | 123 | 0.0 | 4.3 | 0.00 | 0.00 | 0.00 | 47 | 1018.4 |
| 20260503222002 | 83 | 310 | 0.9 | 4.3 | 0.00 | 0.00 | 0.00 | 48 | 1018.4 |
| 20260503221553 | 82 | 0 | 0.0 | 7.8 | 0.00 | 0.00 | 0.00 | 47 | 1018.6 |
| 20260503221500 | 82 | 256 | 0.0 | 7.8 | 0.00 | 0.00 | 0.00 | 48 | 1018.5 |
| 20260503221001 | 83 | 331 | 3.5 | 7.8 | 0.00 | 0.00 | 0.00 | 47 | 1018.4 |
| 20260503220501 | 83 | 186 | 1.7 | 7.0 | 0.00 | 0.00 | 0.00 | 46 | 1018.5 |
| 20260503220105 | 83 | 230 | 0.9 | 6.1 | 0.00 | 0.00 | 0.00 | 45 | 1018.8 |
| 20260503220001 | 84 | 311 | 1.7 | 5.2 | 0.00 | 0.00 | 0.00 | 46 | 1018.5 |
| 20260503215501 | 84 | 355 | 0.0 | 6.1 | 0.00 | 0.00 | 0.00 | 45 | 1018.7 |
| 20260503215000 | 84 | 178 | 0.0 | 6.1 | 0.00 | 0.00 | 0.00 | 46 | 1018.7 |
| 20260503214947 | 83 | 314 | 0.9 | 5.2 | 0.00 | 0.00 | 0.00 | 46 | 1018.9 |
| 20260503214548 | 83 | 285 | 0.0 | 4.3 | 0.00 | 0.00 | 0.00 | 45 | 1019.1 |
| 20260503214223 | 84 | 176 | 1.7 | 5.2 | 0.00 | 0.00 | 0.00 | 45 | 1019.0 |
| 20260503213502 | 84 | 205 | 0.9 | 5.2 | 0.00 | 0.00 | 0.00 | 45 | 1019.1 |
| 20260503213048 | 84 | 0 | 0.0 | 3.5 | 0.00 | 0.00 | 0.00 | 45 | 1019.4 |
| 20260503213002 | 84 | 287 | 0.0 | 3.5 | 0.00 | 0.00 | 0.00 | 44 | 1019.1 |
| 20260503212502 | 84 | 359 | 0.0 | 7.0 | 0.00 | 0.00 | 0.00 | 45 | 1019.2 |
| 20260503212000 | 84 | 15 | 0.9 | 7.0 | 0.00 | 0.00 | 0.00 | 46 | 1019.2 |
| 20260503211605 | 84 | 291 | 0.0 | 4.3 | 0.00 | 0.00 | 0.00 | 44 | 1019.4 |
| 20260503211501 | 84 | 298 | 0.0 | 4.3 | 0.00 | 0.00 | 0.00 | 45 | 1019.1 |
| 20260503211001 | 84 | 156 | 0.9 | 4.3 | 0.00 | 0.00 | 0.00 | 44 | 1019.3 |
| 20260503210501 | 84 | 326 | 0.9 | 7.0 | 0.00 | 0.00 | 0.00 | 46 | 1019.3 |
| 20260503210055 | 84 | 0 | 0.0 | 6.1 | 0.00 | 0.00 | 0.00 | 43 | 1019.6 |
| 20260503210002 | 84 | 186 | 0.9 | 7.0 | 0.00 | 0.00 | 0.00 | 43 | 1019.4 |
| 20260503205502 | 85 | 308 | 1.7 | 7.0 | 0.00 | 0.00 | 0.00 | 44 | 1019.5 |
| 20260503205451 | 85 | 112 | 0.9 | 5.2 | 0.00 | 0.00 | 0.00 | 43 | 1019.6 |
| 20260503204553 | 84 | 352 | 0.9 | 6.1 | 0.00 | 0.00 | 0.00 | 43 | 1019.8 |
| 20260503204501 | 84 | 2 | 1.7 | 6.1 | 0.00 | 0.00 | 0.00 | 44 | 1019.6 |
| 20260503204251 | 84 | 280 | 0.9 | 6.1 | 0.00 | 0.00 | 0.00 | 45 | 1019.7 |
| 20260503203502 | 84 | 271 | 0.0 | 7.0 | 0.00 | 0.00 | 0.00 | 45 | 1019.9 |
| 20260503203047 | 83 | 0 | 0.0 | 6.1 | 0.00 | 0.00 | 0.00 | 43 | 1020.3 |
| 20260503203001 | 84 | 25 | 0.0 | 7.0 | 0.00 | 0.00 | 0.00 | 44 | 1020.0 |
| 20260503202501 | 85 | 330 | 0.9 | 5.2 | 0.00 | 0.00 | 0.00 | 43 | 1020.2 |
| 20260503202001 | 85 | 91 | 0.9 | 8.7 | 0.00 | 0.00 | 0.00 | 44 | 1020.2 |
| 20260503201547 | 84 | 0 | 0.9 | 8.7 | 0.00 | 0.00 | 0.00 | 43 | 1020.7 |
| 20260503201501 | 85 | 252 | 0.0 | 8.7 | 0.00 | 0.00 | 0.00 | 44 | 1020.5 |
| 20260503201001 | 85 | 207 | 0.0 | 3.5 | 0.00 | 0.00 | 0.00 | 43 | 1020.6 |
| 20260503200501 | 85 | 229 | 0.0 | 3.5 | 0.00 | 0.00 | 0.00 | 42 | 1021.0 |
| 20260503200050 | 84 | 276 | 0.0 | 3.5 | 0.00 | 0.00 | 0.00 | 44 | 1021.2 |
| 20260503200000 | 85 | 34 | 0.9 | 3.5 | 0.00 | 0.00 | 0.00 | 44 | 1020.9 |
| 20260503195730 | 85 | 236 | 0.0 | 1.7 | 0.00 | 0.00 | 0.00 | 42 | 1021.0 |
| 20260503195002 | 85 | 214 | 0.0 | 3.5 | 0.00 | 0.00 | 0.00 | 44 | 1021.2 |
| 20260503194555 | 83 | 0 | 0.0 | 4.3 | 0.00 | 0.00 | 0.00 | 44 | 1021.5 |
| 20260503194501 | 84 | 262 | 0.9 | 3.5 | 0.00 | 0.00 | 0.00 | 45 | 1021.3 |
| 20260503194002 | 84 | 308 | 0.0 | 3.5 | 0.00 | 0.00 | 0.00 | 43 | 1021.4 |
| 20260503193501 | 84 | 195 | 0.0 | 4.3 | 0.00 | 0.00 | 0.00 | 47 | 1021.4 |
| 20260503193118 | 82 | 0 | 0.0 | 6.1 | 0.00 | 0.00 | 0.00 | 47 | 1021.7 |
| 20260503193001 | 82 | 203 | 0.0 | 4.3 | 0.00 | 0.00 | 0.00 | 47 | 1021.6 |
| 20260503192726 | 82 | 232 | 0.0 | 2.6 | 0.00 | 0.00 | 0.00 | 46 | 1021.5 |
| 20260503192001 | 83 | 184 | 0.0 | 4.3 | 0.00 | 0.00 | 0.00 | 46 | 1021.6 |
| 20260503191548 | 83 | 0 | 0.0 | 4.3 | 0.00 | 0.00 | 0.00 | 44 | 1022.0 |
| 20260503191500 | 84 | 18 | 0.0 | 4.3 | 0.00 | 0.00 | 0.00 | 44 | 1021.7 |
| 20260503191001 | 85 | 10 | 0.0 | 5.2 | 0.00 | 0.00 | 0.00 | 44 | 1021.7 |
| 20260503190720 | 84 | 169 | 1.7 | 5.2 | 0.00 | 0.00 | 0.00 | 44 | 1021.8 |
| 20260503190052 | 83 | 0 | 0.0 | 1.7 | 0.00 | 0.00 | 0.00 | 43 | 1022.0 |
| 20260503190001 | 84 | 226 | 0.0 | 1.7 | 0.00 | 0.00 | 0.00 | 45 | 1021.8 |
| 20260503185503 | 85 | 276 | 0.0 | 1.7 | 0.00 | 0.00 | 0.00 | 43 | 1021.8 |
| 20260503185002 | 85 | 135 | 0.0 | 1.7 | 0.00 | 0.00 | 0.00 | 47 | 1022.0 |
| 20260503184941 | 84 | 31 | 0.0 | 3.5 | 0.00 | 0.00 | 0.00 | 48 | 1022.1 |
| 20260503184545 | 84 | 0 | 0.0 | 3.5 | 0.00 | 0.00 | 0.00 | 45 | 1022.3 |
| 20260503184225 | 83 | 42 | 0.9 | 3.5 | 0.00 | 0.00 | 0.00 | 45 | 1022.4 |
| 20260503183501 | 84 | 129 | 0.0 | 1.7 | 0.00 | 0.00 | 0.00 | 45 | 1022.4 |
| 20260503183049 | 82 | 0 | 0.0 | 3.5 | 0.00 | 0.00 | 0.00 | 48 | 1022.6 |
| 20260503183001 | 83 | 336 | 0.0 | 3.5 | 0.00 | 0.00 | 0.00 | 48 | 1022.6 |
| 20260503182749 | 82 | 336 | 0.0 | 3.5 | 0.00 | 0.00 | 0.00 | 46 | 1022.6 |
| 20260503182001 | 83 | 188 | 0.0 | 5.2 | 0.00 | 0.00 | 0.00 | 47 | 1022.6 |
| 20260503181618 | 82 | 0 | 0.9 | 5.2 | 0.00 | 0.00 | 0.00 | 47 | 1022.9 |
| 20260503181501 | 82 | 257 | 0.9 | 5.2 | 0.00 | 0.00 | 0.00 | 47 | 1022.6 |
| 20260503181226 | 82 | 198 | 0.0 | 5.2 | 0.00 | 0.00 | 0.00 | 45 | 1022.7 |
| 20260503180501 | 82 | 232 | 0.0 | 6.1 | 0.00 | 0.00 | 0.00 | 47 | 1022.8 |
| 20260503180059 | 82 | 0 | 0.9 | 6.1 | 0.00 | 0.00 | 0.00 | 46 | 1023.0 |
| 20260503180001 | 82 | 342 | 0.9 | 6.1 | 0.00 | 0.00 | 0.00 | 47 | 1022.8 |
| 20260503175500 | 83 | 314 | 0.0 | 5.2 | 0.00 | 0.00 | 0.00 | 48 | 1022.9 |
| 20260503175001 | 82 | 205 | 0.0 | 1.7 | 0.00 | 0.00 | 0.00 | 47 | 1022.8 |
| 20260503174555 | 82 | 0 | 0.0 | 0.9 | 0.00 | 0.00 | 0.00 | 51 | 1023.1 |
| 20260503174501 | 82 | 37 | 0.0 | 1.7 | 0.00 | 0.00 | 0.00 | 48 | 1022.9 |
| 20260503174002 | 82 | 276 | 0.0 | 1.7 | 0.00 | 0.00 | 0.00 | 49 | 1023.1 |
| 20260503173501 | 81 | 231 | 0.0 | 2.6 | 0.00 | 0.00 | 0.00 | 50 | 1023.3 |
| 20260503173056 | 81 | 0 | 0.0 | 3.5 | 0.00 | 0.00 | 0.00 | 49 | 1023.5 |
| 20260503173001 | 81 | 19 | 0.9 | 2.6 | 0.00 | 0.00 | 0.00 | 50 | 1023.2 |
| 20260503172501 | 81 | 30 | 0.0 | 2.6 | 0.00 | 0.00 | 0.00 | 51 | 1023.3 |
| 20260503172248 | 80 | 172 | 0.0 | 4.3 | 0.00 | 0.00 | 0.00 | 50 | 1023.4 |
| 20260503171543 | 80 | 0 | 0.0 | 4.3 | 0.00 | 0.00 | 0.00 | 50 | 1023.7 |
| 20260503171502 | 80 | 191 | 0.9 | 4.3 | 0.00 | 0.00 | 0.00 | 51 | 1023.4 |
| 20260503171002 | 80 | 171 | 0.9 | 4.3 | 0.00 | 0.00 | 0.00 | 50 | 1023.5 |
| 20260503170503 | 80 | 97 | 0.0 | 5.2 | 0.00 | 0.00 | 0.00 | 50 | 1023.6 |
| 20260503151000 | 78 | 249 | 0.0 | 0.0 | 0.00 | 0.00 | 0.00 | 56 | 1023.8 |
| 20260503150502 | 78 | 249 | 0.0 | 0.0 | 0.00 | 0.00 | 0.00 | 56 | 1023.7 |
| 20260503131001 | 69 | 42 | 0.0 | 0.0 | 0.00 | 0.00 | 0.00 | 70 | 1023.1 |
| 20260503130501 | 69 | 42 | 0.0 | 0.0 | 0.00 | 0.00 | 0.00 | 71 | 1023.0 |
| 20260503110450 | 61 | 42 | 0.0 | 0.0 | 0.00 | 0.00 | 0.00 | 87 | 1022.1 |
| 20260503100104 | 61 | 0 | 0.0 | 0.0 | 0.00 | 0.00 | 0.00 | 85 | 1022.4 |
| 20260503090402 | 64 | 42 | 0.0 | 0.0 | 0.00 | 0.00 | 0.00 | 79 | 1022.2 |
| 20260503081558 | 64 | 0 | 0.0 | 0.0 | 0.00 | 0.00 | 0.00 | 78 | 1022.8 |
| 20260503080900 | 65 | 42 | 0.0 | 0.0 | 0.00 | 0.00 | 0.00 | 79 | 1022.6 |
| 20260503080359 | 64 | 42 | 0.0 | 0.0 | 0.00 | 0.00 | 0.00 | 80 | 1022.9 |
| 20260503080118 | 64 | 42 | 0.0 | 0.0 | 0.00 | 0.00 | 0.00 | 80 | 1022.9 |
| 20260503072820 | 63 | 42 | 0.0 | 0.0 | 0.00 | 0.00 | 0.00 | 81 | 1022.7 |
| 20260503072319 | 63 | 42 | 0.0 | 0.0 | 0.00 | 0.00 | 0.00 | 81 | 1022.7 |
| 20260503071812 | 63 | 42 | 0.0 | 0.0 | 0.00 | 0.00 | 0.00 | 80 | 1022.6 |
| 20260503071559 | 63 | 0 | 0.0 | 0.0 | 0.00 | 0.00 | 0.00 | 80 | 1022.9 |
| 20260503071307 | 63 | 42 | 0.0 | 0.0 | 0.00 | 0.00 | 0.00 | 80 | 1022.7 |
| 20260503071055 | 63 | 42 | 0.0 | 0.0 | 0.00 | 0.00 | 0.00 | 79 | 1022.7 |
| 20260503070307 | 63 | 42 | 0.0 | 0.0 | 0.00 | 0.00 | 0.00 | 78 | 1022.8 |
| 20260503060112 | 66 | 0 | 0.0 | 0.0 | 0.00 | 0.00 | 0.00 | 72 | 1023.6 |
| 20260503054802 | 67 | 42 | 0.0 | 0.0 | 0.00 | 0.00 | 0.00 | 70 | 1023.5 |
| 20260503054553 | 67 | 0 | 0.0 | 0.0 | 0.00 | 0.00 | 0.00 | 70 | 1023.8 |
| 20260503054302 | 67 | 42 | 0.0 | 0.0 | 0.00 | 0.00 | 0.00 | 70 | 1023.5 |
| 20260503053802 | 67 | 42 | 0.0 | 0.0 | 0.00 | 0.00 | 0.00 | 69 | 1023.5 |
| 20260503053302 | 67 | 42 | 0.0 | 0.0 | 0.00 | 0.00 | 0.00 | 69 | 1023.5 |
| 20260503053055 | 67 | 0 | 0.0 | 0.0 | 0.00 | 0.00 | 0.00 | 69 | 1023.8 |
| 20260503052803 | 67 | 42 | 0.0 | 0.0 | 0.00 | 0.00 | 0.00 | 69 | 1023.6 |
| 20260503052305 | 68 | 42 | 0.0 | 0.0 | 0.00 | 0.00 | 0.00 | 68 | 1023.5 |
| 20260503051803 | 68 | 42 | 0.0 | 0.0 | 0.00 | 0.00 | 0.00 | 68 | 1023.5 |
| 20260503051554 | 67 | 0 | 0.0 | 0.0 | 0.00 | 0.00 | 0.00 | 68 | 1023.8 |
| 20260503051303 | 68 | 42 | 0.0 | 0.0 | 0.00 | 0.00 | 0.00 | 68 | 1023.4 |
| 20260503050804 | 68 | 42 | 0.0 | 0.0 | 0.00 | 0.00 | 0.00 | 68 | 1023.5 |
| 20260503050524 | 68 | 42 | 0.0 | 0.0 | 0.00 | 0.00 | 0.00 | 69 | 1023.6 |
| 20260503050053 | 67 | 0 | 0.0 | 0.0 | 0.00 | 0.00 | 0.00 | 68 | 1023.8 |
| 20260503045803 | 68 | 42 | 0.0 | 0.0 | 0.00 | 0.00 | 0.00 | 68 | 1023.5 |
| 20260503045305 | 68 | 42 | 0.0 | 0.0 | 0.00 | 0.00 | 0.00 | 69 | 1023.5 |
| 20260503044803 | 68 | 42 | 0.0 | 0.0 | 0.00 | 0.00 | 0.00 | 69 | 1023.4 |
| 20260503044619 | 67 | 0 | 0.0 | 0.0 | 0.00 | 0.00 | 0.00 | 67 | 1023.8 |
| 20260503044528 | 68 | 42 | 0.0 | 0.0 | 0.00 | 0.00 | 0.00 | 68 | 1023.5 |
| 20260503044024 | 68 | 42 | 0.0 | 0.0 | 0.00 | 0.00 | 0.00 | 68 | 1023.5 |
| 20260503043524 | 68 | 42 | 0.0 | 0.0 | 0.00 | 0.00 | 0.00 | 68 | 1023.4 |
| 20260503043050 | 68 | 0 | 0.0 | 0.0 | 0.00 | 0.00 | 0.00 | 67 | 1023.6 |
| 20260503042804 | 68 | 42 | 0.0 | 0.0 | 0.00 | 0.00 | 0.00 | 67 | 1023.2 |
| 20260503042525 | 68 | 42 | 0.0 | 0.0 | 0.00 | 0.00 | 0.00 | 67 | 1023.1 |
| 20260503041804 | 68 | 42 | 0.0 | 0.0 | 0.00 | 0.00 | 0.00 | 67 | 1023.0 |
| 20260503041554 | 68 | 0 | 0.0 | 0.0 | 0.00 | 0.00 | 0.00 | 67 | 1023.3 |
| 20260503041303 | 68 | 42 | 0.0 | 0.0 | 0.00 | 0.00 | 0.00 | 67 | 1023.0 |
| 20260503040804 | 68 | 42 | 0.0 | 0.0 | 0.00 | 0.00 | 0.00 | 67 | 1022.9 |
| 20260503040302 | 68 | 42 | 0.0 | 0.0 | 0.00 | 0.00 | 0.00 | 67 | 1023.0 |
| 20260503040049 | 68 | 0 | 0.0 | 0.0 | 0.00 | 0.00 | 0.00 | 67 | 1023.2 |
| 20260503035804 | 68 | 42 | 0.0 | 0.0 | 0.00 | 0.00 | 0.00 | 68 | 1023.1 |
| 20260503035305 | 68 | 42 | 0.0 | 0.0 | 0.00 | 0.00 | 0.00 | 68 | 1023.1 |
| 20260503034804 | 68 | 42 | 0.0 | 0.0 | 0.00 | 0.00 | 0.00 | 68 | 1023.1 |
| 20260503034548 | 67 | 0 | 0.0 | 0.0 | 0.00 | 0.00 | 0.00 | 68 | 1023.4 |
| 20260503034303 | 68 | 42 | 0.0 | 0.0 | 0.00 | 0.00 | 0.00 | 68 | 1023.2 |
| 20260503033803 | 68 | 42 | 0.0 | 0.0 | 0.00 | 0.00 | 0.00 | 68 | 1023.2 |
| 20260503033303 | 68 | 42 | 0.0 | 0.0 | 0.00 | 0.00 | 0.00 | 68 | 1023.3 |
| 20260503033046 | 68 | 0 | 0.0 | 0.0 | 0.00 | 0.00 | 0.00 | 68 | 1023.5 |
| 20260503032804 | 68 | 42 | 0.0 | 0.0 | 0.00 | 0.00 | 0.00 | 68 | 1023.1 |
| 20260503032304 | 68 | 42 | 0.0 | 0.0 | 0.00 | 0.00 | 0.00 | 68 | 1023.1 |
| 20260503031804 | 68 | 42 | 0.0 | 0.0 | 0.00 | 0.00 | 0.00 | 68 | 1022.9 |
| 20260503031544 | 68 | 0 | 0.0 | 0.0 | 0.00 | 0.00 | 0.00 | 67 | 1023.2 |
| 20260503031300 | 68 | 42 | 0.0 | 0.0 | 0.00 | 0.00 | 0.00 | 68 | 1022.8 |
| 20260503030747 | 68 | 42 | 0.0 | 0.0 | 0.00 | 0.00 | 0.00 | 68 | 1022.8 |
| 20260503030246 | 68 | 42 | 0.0 | 0.0 | 0.00 | 0.00 | 0.00 | 68 | 1022.7 |
| 20260503030055 | 68 | 0 | 0.0 | 0.0 | 0.00 | 0.00 | 0.00 | 67 | 1022.8 |
| 20260503025729 | 68 | 42 | 0.0 | 0.0 | 0.00 | 0.00 | 0.00 | 68 | 1022.6 |
| 20260503025229 | 68 | 42 | 0.0 | 0.0 | 0.00 | 0.00 | 0.00 | 68 | 1022.4 |
| 20260503024724 | 68 | 42 | 0.0 | 0.0 | 0.00 | 0.00 | 0.00 | 68 | 1022.3 |
| 20260503024557 | 68 | 0 | 0.0 | 0.0 | 0.00 | 0.00 | 0.00 | 67 | 1022.5 |
| 20260503024224 | 68 | 42 | 0.0 | 0.0 | 0.00 | 0.00 | 0.00 | 68 | 1022.3 |
| 20260503023955 | 68 | 42 | 0.0 | 0.0 | 0.00 | 0.00 | 0.00 | 67 | 1022.3 |
| 20260503023439 | 68 | 42 | 0.0 | 0.0 | 0.00 | 0.00 | 0.00 | 67 | 1022.1 |
| 20260503023049 | 68 | 0 | 0.0 | 0.0 | 0.00 | 0.00 | 0.00 | 67 | 1022.4 |
| 20260503022702 | 68 | 42 | 0.0 | 0.0 | 0.00 | 0.00 | 0.00 | 67 | 1022.0 |
| 20260503022431 | 69 | 42 | 0.0 | 0.9 | 0.00 | 0.00 | 0.00 | 67 | 1021.8 |
| 20260503021702 | 69 | 42 | 0.0 | 0.9 | 0.00 | 0.00 | 0.00 | 67 | 1021.9 |
| 20260503021547 | 68 | 0 | 0.0 | 3.5 | 0.00 | 0.00 | 0.00 | 66 | 1021.9 |